Location: Unspecified
(0.0000°N, 0.0000°E)
Time: 03:33:23
(UTC+00:00)

RS-6 - Pass Details

Date: 04 October 2022
Orbit: 1636 x 1664 km, 83.0° (Epoch: 27 November)

Event Time Altitude Azimuth Distance (km) Brightness Sun altitude
Rises 03:18:13 0° 167° (SSE) 4,895 ? -37.5°
Reaches altitude 10° 03:21:29 10° 160° (SSE) 3,902 ? -36.7°
Maximum altitude 03:30:13 41° 92° (E) 2,233 ? -34.5°
Drops below altitude 10° 03:38:50 10° 26° (NNE) 3,872 ? -32.4°
Sets 03:42:01 0° 19° (NNE) 4,855 ? -31.6°
